• In Uzbekistan
  • List of Countries
  • For 7 days
  • Water Temperature
  • Satellite Maps
  • Weather Map
  • Weather Widgets
  • user-avatar
    Login

    Hourly Weather Hajfong

    Today, 18 April, Thursday

    Time Temperature Precipitation Wind Pressure Humidity
    00:00 +27°C° 0 mm 4 mps 755 mmHg 92%
    01:00 +27°C° 0 mm 4 mps 754 mmHg 93%
    02:00 +27°C° 0 mm 3 mps 754 mmHg 93%
    03:00 +27°C° 0 mm 3 mps 754 mmHg 94%
    04:00 +27°C° 0 mm 3 mps 753 mmHg 95%
    05:00 +28°C° 0.1 mm 3 mps 754 mmHg 93%
    06:00 +28°C° 0.1 mm 3 mps 754 mmHg 92%
    07:00 +29°C° 0 mm 4 mps 754 mmHg 92%
    08:00 +29°C° 0.1 mm 4 mps 754 mmHg 89%
    09:00 +30°C° 0.1 mm 5 mps 754 mmHg 87%
    10:00 +30°C° 0.1 mm 5 mps 754 mmHg 84%
    11:00 +32°C° 0 mm 5 mps 753 mmHg 82%
    12:00 +33°C° 0 mm 5 mps 753 mmHg 80%
    13:00 +33°C° 0 mm 5 mps 752 mmHg 78%
    14:00 +33°C° 0 mm 5 mps 751 mmHg 77%
    15:00 +34°C° 0 mm 5 mps 751 mmHg 76%
    16:00 +34°C° 0 mm 5 mps 750 mmHg 74%
    17:00 +32°C° 0 mm 5 mps 750 mmHg 79%
    18:00 +30°C° 0 mm 4 mps 750 mmHg 84%
    19:00 +29°C° 0 mm 4 mps 750 mmHg 89%
    20:00 +29°C° 0 mm 4 mps 750 mmHg 88%
    21:00 +29°C° 0 mm 5 mps 751 mmHg 88%
    22:00 +29°C° 0 mm 5 mps 751 mmHg 87%
    23:00 +29°C° 0 mm 5 mps 751 mmHg 87%

    Tomorrow, 19 April, Friday

    Time Temperature Precipitation Wind Pressure Humidity
    00:00 +29°C° 0 mm 5 mps 751 mmHg 88%
    01:00 +29°C° 0 mm 5 mps 751 mmHg 88%
    02:00 +29°C° 0 mm 5 mps 751 mmHg 89%
    03:00 +28°C° 0 mm 4 mps 750 mmHg 90%
    04:00 +28°C° 0 mm 4 mps 750 mmHg 91%
    05:00 +29°C° 0 mm 4 mps 750 mmHg 89%
    06:00 +29°C° 0 mm 4 mps 751 mmHg 87%
    07:00 +30°C° 0 mm 4 mps 751 mmHg 85%
    08:00 +33°C° 0 mm 4 mps 751 mmHg 77%
    09:00 +35°C° 0 mm 4 mps 752 mmHg 70%
    10:00 +36°C° 0 mm 4 mps 752 mmHg 62%
    11:00 +37°C° 0 mm 4 mps 751 mmHg 58%
    12:00 +38°C° 0 mm 4 mps 751 mmHg 54%
    13:00 +40°C° 0 mm 4 mps 750 mmHg 50%
    14:00 +39°C° 0 mm 5 mps 750 mmHg 54%
    15:00 +37°C° 0 mm 5 mps 749 mmHg 58%
    16:00 +36°C° 0 mm 5 mps 748 mmHg 62%
    17:00 +35°C° 0 mm 5 mps 748 mmHg 67%
    18:00 +33°C° 0 mm 4 mps 749 mmHg 72%
    19:00 +32°C° 0 mm 4 mps 749 mmHg 77%
    20:00 +32°C° 0 mm 4 mps 749 mmHg 78%
    21:00 +30°C° 0 mm 5 mps 750 mmHg 78%
    22:00 +30°C° 0 mm 5 mps 750 mmHg 79%
    23:00 +30°C° 0 mm 6 mps 750 mmHg 78%

    Day after tomorrow, 20 April, Saturday

    Time Temperature Precipitation Wind Pressure Humidity
    00:00 +32°C° 0 mm 6 mps 750 mmHg 78%
    01:00 +32°C° 0 mm 6 mps 749 mmHg 77%
    02:00 +30°C° 0 mm 6 mps 749 mmHg 79%
    03:00 +30°C° 0 mm 5 mps 749 mmHg 81%
    04:00 +30°C° 0 mm 5 mps 749 mmHg 83%
    05:00 +30°C° 0 mm 5 mps 749 mmHg 81%
    06:00 +32°C° 0 mm 5 mps 750 mmHg 80%
    07:00 +32°C° 0 mm 5 mps 750 mmHg 78%
    08:00 +34°C° 0 mm 5 mps 750 mmHg 71%
    09:00 +35°C° 0 mm 5 mps 751 mmHg 65%
    10:00 +37°C° 0 mm 5 mps 751 mmHg 58%
    11:00 +39°C° 0 mm 5 mps 750 mmHg 54%
    12:00 +40°C° 0 mm 5 mps 750 mmHg 50%
    13:00 +41°C° 0 mm 5 mps 749 mmHg 46%
    14:00 +40°C° 0 mm 5 mps 749 mmHg 51%
    15:00 +39°C° 0 mm 5 mps 748 mmHg 56%
    16:00 +38°C° 0 mm 6 mps 747 mmHg 61%
    17:00 +35°C° 0 mm 5 mps 748 mmHg 66%
    18:00 +33°C° 0 mm 5 mps 748 mmHg 72%
    19:00 +32°C° 0 mm 4 mps 749 mmHg 78%
    20:00 +30°C° 0 mm 4 mps 749 mmHg 79%
    21:00 +30°C° 0 mm 3 mps 750 mmHg 81%
    22:00 +30°C° 0 mm 3 mps 750 mmHg 83%
    23:00 +30°C° 0 mm 4 mps 750 mmHg 84%

    21 April, Sunday

    Time Temperature Precipitation Wind Pressure Humidity
    00:00 +30°C° 0 mm 4 mps 750 mmHg 85%
    01:00 +29°C° 0 mm 5 mps 750 mmHg 86%
    02:00 +29°C° 0 mm 4 mps 750 mmHg 86%
    03:00 +29°C° 0 mm 4 mps 749 mmHg 86%
    04:00 +29°C° 0 mm 4 mps 749 mmHg 86%
    05:00 +30°C° 0 mm 4 mps 750 mmHg 85%
    06:00 +30°C° 0 mm 3 mps 750 mmHg 83%
    07:00 +31°C° 0 mm 3 mps 751 mmHg 81%
    08:00 +33°C° 0 mm 3 mps 751 mmHg 74%
    09:00 +35°C° 0 mm 4 mps 752 mmHg 67%
    10:00 +37°C° 0 mm 4 mps 752 mmHg 60%
    11:00 +37°C° 0 mm 4 mps 752 mmHg 59%
    12:00 +39°C° 0 mm 5 mps 751 mmHg 59%
    13:00 +39°C° 0 mm 5 mps 751 mmHg 58%
    14:00 +37°C° 0 mm 5 mps 750 mmHg 63%
    15:00 +36°C° 0 mm 5 mps 750 mmHg 67%
    16:00 +34°C° 0 mm 5 mps 749 mmHg 72%
    17:00 +33°C° 0 mm 5 mps 750 mmHg 77%
    18:00 +32°C° 0 mm 4 mps 750 mmHg 82%
    19:00 +30°C° 0 mm 4 mps 751 mmHg 86%
    20:00 +30°C° 2.4 mm 4 mps 751 mmHg 88%
    21:00 +30°C° 2.4 mm 4 mps 752 mmHg 89%
    22:00 +29°C° 2.4 mm 4 mps 752 mmHg 90%
    23:00 +29°C° 8.7 mm 4 mps 752 mmHg 87%

    22 April, Monday

    Time Temperature Precipitation Wind Pressure Humidity
    00:00 +29°C° 8.7 mm 5 mps 752 mmHg 85%
    01:00 +28°C° 8.7 mm 6 mps 752 mmHg 82%
    02:00 +29°C° 1.7 mm 6 mps 752 mmHg 82%
    03:00 +29°C° 1.7 mm 5 mps 752 mmHg 83%
    04:00 +29°C° 1.7 mm 5 mps 751 mmHg 83%
    05:00 +29°C° 0 mm 5 mps 752 mmHg 85%
    06:00 +29°C° 0 mm 4 mps 753 mmHg 87%
    07:00 +30°C° 0 mm 4 mps 753 mmHg 90%
    08:00 +30°C° 0 mm 4 mps 754 mmHg 88%
    09:00 +32°C° 0 mm 4 mps 754 mmHg 87%
    10:00 +31°C° 0 mm 3 mps 754 mmHg 85%
    11:00 +32°C° 0 mm 4 mps 754 mmHg 84%
    12:00 +33°C° 0 mm 4 mps 753 mmHg 84%
    13:00 +33°C° 0 mm 4 mps 753 mmHg 83%
    14:00 +33°C° 0 mm 5 mps 752 mmHg 83%
    15:00 +32°C° 0 mm 5 mps 752 mmHg 83%
    16:00 +32°C° 0 mm 5 mps 751 mmHg 84%
    17:00 +32°C° 0.1 mm 4 mps 752 mmHg 86%
    18:00 +30°C° 0.1 mm 3 mps 752 mmHg 89%
    19:00 +29°C° 0.1 mm 2 mps 753 mmHg 91%
    20:00 +29°C° 0.1 mm 3 mps 753 mmHg 90%
    21:00 +29°C° 0.1 mm 4 mps 754 mmHg 89%
    22:00 +29°C° 0.1 mm 5 mps 754 mmHg 89%
    23:00 +29°C° 0 mm 4 mps 754 mmHg 90%

    23 April, Tuesday

    Time Temperature Precipitation Wind Pressure Humidity
    00:00 +28°C° 0 mm 3 mps 753 mmHg 92%
    01:00 +28°C° 0 mm 3 mps 753 mmHg 94%
    02:00 +28°C° 0 mm 2 mps 753 mmHg 94%
    03:00 +28°C° 0 mm 2 mps 753 mmHg 94%
    04:00 +28°C° 0 mm 2 mps 753 mmHg 93%
    05:00 +29°C° 0 mm 2 mps 754 mmHg 92%
    06:00 +29°C° 0 mm 3 mps 754 mmHg 92%
    07:00 +29°C° 0 mm 3 mps 755 mmHg 91%
    08:00 +29°C° 0 mm 3 mps 755 mmHg 89%
    09:00 +30°C° 0 mm 4 mps 755 mmHg 88%
    10:00 +30°C° 0 mm 4 mps 756 mmHg 86%
    11:00 +32°C° 0 mm 4 mps 755 mmHg 84%
    12:00 +32°C° 0 mm 4 mps 755 mmHg 82%
    13:00 +33°C° 0 mm 4 mps 754 mmHg 80%
    14:00 +33°C° 0 mm 4 mps 754 mmHg 80%
    15:00 +33°C° 0 mm 4 mps 753 mmHg 80%
    16:00 +33°C° 0 mm 4 mps 753 mmHg 80%
    17:00 +32°C° 0 mm 4 mps 753 mmHg 84%
    18:00 +30°C° 0 mm 4 mps 754 mmHg 88%
    19:00 +29°C° 0 mm 4 mps 754 mmHg 92%
    20:00 +28°C° 0 mm 3 mps 754 mmHg 93%
    21:00 +28°C° 0 mm 2 mps 755 mmHg 94%
    22:00 +28°C° 0 mm 1 mps 755 mmHg 95%
    23:00 +28°C° 0 mm 2 mps 755 mmHg 95%
    Show more